Weather History for Cody, WY

Change the Weather History Date:

Friday, February 1, 2013

  Actual Average Record
Temperature  
Mean Temperature 30 °F -  
Max Temperature 42 °F 35 °F 65 °F (1935)
Min Temperature 19 °F 11 °F -26 °F (1917)
Degree Days  
Heating Degree Days 34    
Moisture  
Dew Point 20 °F    
Average Humidity 60    
Maximum Humidity 100    
Minimum Humidity 41    
Precipitation  
Precipitation 0.00 in - - ()
Sea Level Pressure  
Sea Level Pressure 30.05 in    
Wind  
Wind Speed 8 mph (WNW)    
Max Wind Speed 18 mph    
Max Gust Speed 36 mph    
Visibility 10 miles    
Events      
Averages and records for this station are not official NWS values.
T = Trace of Precipitation, MM = Missing Value Source: NWS Daily Summary

Daily Weather History Graph

Daily Weather History Graph

Search for Another Location

Airport:

Trip Planner

Search our weather history database for the weather conditions in past years. The results will help you decide how hot, cold, wet, or windy it might be!

Date:

Astronomy

Feb. 01, 2013 Rise Set
Actual Time 7:34 AM MST 5:25 PM MST
Civil Twilight 7:03 AM MST 5:56 PM MST
Nautical Twilight 6:28 AM MST 6:31 PM MST
Astronomical Twilight 5:54 AM MST 7:05 PM MST
Moon 11:54 PM MST (2/1) 9:53 AM MST (2/1)
Length of Visible Light 10h 53m
Length of Day
9h 51m
Waning Gibbous, 69% of the Moon is Illuminated
Feb 1
Waning Gibbous
Feb 3
Last Quarter
Feb 10
New
Feb 17
First Quarter
Feb 25
Full

Hourly Weather History & Observations

Time (MST) Temp. Windchill Dew Point Humidity Pressure Visibility Wind Dir Wind Speed Gust Speed Precip Events Conditions
12:15 AM 24.8 °F 15.3 °F 19.4 °F 80% 30.00 in 10.0 mi NW 9.2 mph 16.1 mph N/A   Clear
12:35 AM 21.2 °F 16.4 °F 17.6 °F 86% 30.00 in 10.0 mi North 3.5 mph - N/A   Clear
1:16 AM 30.2 °F 23.4 °F 23.0 °F 75% 29.98 in 10.0 mi SW 6.9 mph - N/A   Partly Cloudy
1:35 AM 28.4 °F 22.2 °F 17.6 °F 64% 29.98 in 10.0 mi North 5.8 mph - N/A   Scattered Clouds
1:55 AM 35.6 °F 29.2 °F 24.8 °F 65% 29.98 in 10.0 mi West 8.1 mph - N/A   Clear
2:15 AM 37.4 °F 29.3 °F 21.2 °F 52% 29.97 in 10.0 mi West 12.7 mph 20.7 mph N/A   Clear
2:35 AM 37.4 °F 29.3 °F 23.0 °F 56% 29.98 in 10.0 mi WNW 12.7 mph 24.2 mph N/A   Partly Cloudy
3:35 AM 37.4 °F 30.8 °F 23.0 °F 56% 29.96 in 10.0 mi WNW 9.2 mph 18.4 mph N/A   Partly Cloudy
3:55 AM 37.4 °F 30.3 °F 23.0 °F 56% 29.96 in 10.0 mi West 10.4 mph 18.4 mph N/A   Clear
4:15 AM 37.4 °F 31.4 °F 24.8 °F 60% 29.96 in 10.0 mi WNW 8.1 mph - N/A   Clear
4:35 AM 37.4 °F 31.4 °F 24.8 °F 60% 29.96 in 10.0 mi West 8.1 mph 16.1 mph N/A   Scattered Clouds
4:55 AM 39.2 °F 33.0 °F 24.8 °F 56% 29.96 in 10.0 mi West 9.2 mph - N/A   Mostly Cloudy
5:15 AM 37.4 °F 32.8 °F 21.2 °F 52% 29.95 in 10.0 mi West 5.8 mph - N/A   Overcast
5:35 AM 23.0 °F 17.0 °F 15.8 °F 74% 29.95 in 10.0 mi NE 4.6 mph - N/A   Overcast
5:55 AM 23.0 °F 17.0 °F 17.6 °F 80% 29.94 in 10.0 mi NNW 4.6 mph - N/A   Overcast
6:15 AM 24.8 °F - 19.4 °F 80% 29.95 in 10.0 mi Calm Calm - N/A   Mostly Cloudy
6:36 AM 33.8 °F 27.0 °F 23.0 °F 65% 29.95 in 10.0 mi West 8.1 mph 16.1 mph N/A   Mostly Cloudy
7:15 AM 26.6 °F 17.5 °F 21.2 °F 80% 29.95 in 10.0 mi West 9.2 mph - N/A   Mostly Cloudy
7:35 AM 21.2 °F 12.6 °F 15.8 °F 80% 29.96 in 10.0 mi North 6.9 mph - N/A   Overcast
8:15 AM 19.4 °F 10.4 °F 17.6 °F 93% 29.98 in 10.0 mi NNE 6.9 mph - N/A   Overcast
8:35 AM 19.4 °F 10.4 °F 17.6 °F 93% 29.98 in 10.0 mi NE 6.9 mph - N/A   Overcast
8:55 AM 19.4 °F 8.6 °F 19.4 °F 100% 30.00 in 10.0 mi NE 9.2 mph - N/A   Overcast
9:15 AM 21.2 °F 16.4 °F 19.4 °F 93% 30.02 in 10.0 mi NNE 3.5 mph - N/A   Overcast
9:35 AM 23.0 °F 15.8 °F 19.4 °F 86% 30.02 in 10.0 mi SW 5.8 mph - N/A   Overcast
10:15 AM 26.6 °F 20.0 °F 23.0 °F 86% 30.03 in 10.0 mi South 5.8 mph - N/A   Mostly Cloudy
10:35 AM 28.4 °F 24.6 °F 23.0 °F 80% 30.03 in 10.0 mi WNW 3.5 mph - N/A   Mostly Cloudy
11:15 AM 32.0 °F 26.4 °F 26.6 °F 80% 30.03 in 10.0 mi NNW 5.8 mph - N/A   Partly Cloudy
11:35 AM 35.6 °F 30.7 °F 26.6 °F 70% 30.04 in 10.0 mi NNW 5.8 mph - N/A   Mostly Cloudy
12:15 PM 35.6 °F 31.7 °F 26.6 °F 70% 30.05 in 10.0 mi North 4.6 mph - N/A   Overcast
12:35 PM 35.6 °F 29.9 °F 26.6 °F 70% 30.06 in 10.0 mi NNE 6.9 mph - N/A   Mostly Cloudy
1:15 PM 39.2 °F 34.2 °F 24.8 °F 56% 30.05 in 10.0 mi ENE 6.9 mph - N/A   Mostly Cloudy
1:35 PM 39.2 °F 35.0 °F 24.8 °F 56% 30.05 in 10.0 mi ENE 5.8 mph - N/A   Overcast
1:55 PM 39.2 °F 33.0 °F 24.8 °F 56% 30.05 in 10.0 mi NE 9.2 mph - N/A   Overcast
2:15 PM 39.2 °F 35.9 °F 23.0 °F 52% 30.05 in 10.0 mi NE 4.6 mph - N/A   Mostly Cloudy
2:35 PM 39.2 °F 35.0 °F 26.6 °F 61% 30.05 in 10.0 mi ENE 5.8 mph - N/A   Scattered Clouds
2:55 PM 39.2 °F 33.6 °F 26.6 °F 61% 30.05 in 10.0 mi ENE 8.1 mph - N/A   Clear
3:35 PM 39.2 °F 34.2 °F 24.8 °F 56% 30.07 in 10.0 mi NNE 6.9 mph - N/A   Clear
4:15 PM 42.8 °F 39.3 °F 23.0 °F 46% 30.07 in 10.0 mi NW 5.8 mph - N/A   Mostly Cloudy
4:35 PM 42.8 °F 37.0 °F 21.2 °F 42% 30.08 in 10.0 mi West 10.4 mph - N/A   Mostly Cloudy
4:55 PM 39.2 °F 32.0 °F 17.6 °F 42% 30.07 in 10.0 mi WSW 11.5 mph 17.3 mph N/A   Mostly Cloudy
5:15 PM 39.2 °F 31.6 °F 17.6 °F 42% 30.07 in 10.0 mi West 12.7 mph 23.0 mph N/A   Mostly Cloudy
5:35 PM 39.2 °F 33.0 °F 17.6 °F 42% 30.08 in 10.0 mi West 9.2 mph - N/A   Scattered Clouds
5:55 PM 37.4 °F 28.2 °F 17.6 °F 45% 30.07 in 10.0 mi WSW 16.1 mph 24.2 mph N/A   Clear
6:15 PM 37.4 °F 29.8 °F 19.4 °F 48% 30.08 in 10.0 mi West 11.5 mph 20.7 mph N/A   Clear
6:35 PM 37.4 °F 27.5 °F 17.6 °F 45% 30.08 in 10.0 mi West 18.4 mph 35.7 mph N/A   Clear
6:55 PM 37.4 °F 27.8 °F 17.6 °F 45% 30.09 in 10.0 mi WSW 17.3 mph 31.1 mph N/A   Clear
7:15 PM 37.4 °F 30.3 °F 15.8 °F 41% 30.10 in 10.0 mi West 10.4 mph 27.6 mph N/A   Clear
7:35 PM 37.4 °F 30.8 °F 15.8 °F 41% 30.12 in 10.0 mi West 9.2 mph 21.9 mph N/A   Clear
7:55 PM 37.4 °F 30.3 °F 15.8 °F 41% 30.13 in 10.0 mi West 10.4 mph - N/A   Clear
8:15 PM 35.6 °F 29.9 °F 15.8 °F 44% 30.14 in 10.0 mi West 6.9 mph - N/A   Scattered Clouds
8:35 PM 35.6 °F 29.2 °F 15.8 °F 44% 30.15 in 10.0 mi WSW 8.1 mph - N/A   Partly Cloudy
8:55 PM 35.6 °F 29.9 °F 15.8 °F 44% 30.16 in 10.0 mi West 6.9 mph - N/A   Clear
9:15 PM 35.6 °F 30.7 °F 17.6 °F 48% 30.17 in 10.0 mi WNW 5.8 mph 16.1 mph N/A   Clear
9:35 PM 35.6 °F 27.5 °F 17.6 °F 48% 30.17 in 10.0 mi West 11.5 mph - N/A   Clear
9:55 PM 35.6 °F 29.9 °F 17.6 °F 48% 30.18 in 10.0 mi West 6.9 mph - N/A   Clear
10:15 PM 35.6 °F 27.5 °F 17.6 °F 48% 30.18 in 10.0 mi West 11.5 mph 19.6 mph N/A   Clear
10:35 PM 35.6 °F 27.1 °F 17.6 °F 48% 30.19 in 10.0 mi West 12.7 mph 21.9 mph N/A   Clear
10:55 PM 35.6 °F 27.5 °F 17.6 °F 48% 30.19 in 10.0 mi West 11.5 mph 21.9 mph N/A   Clear
11:15 PM 35.6 °F 26.6 °F 17.6 °F 48% 30.20 in 10.0 mi West 13.8 mph 21.9 mph N/A   Clear
11:35 PM 35.6 °F 26.2 °F 17.6 °F 48% 30.20 in 10.0 mi West 15.0 mph 20.7 mph N/A   Clear
11:55 PM 35.6 °F 28.0 °F 17.6 °F 48% 30.20 in 10.0 mi West 10.4 mph 16.1 mph N/A   Clear